EN

Hourly Weather Parabel

Today, 26 February, Friday

Time Temperature Precipitation Wind Pressure Humidity
00:00 -30°C° 0 mm 1 mps 757 mmHg 99%
01:00 -30°C° 0 mm 1 mps 757 mmHg 98%
02:00 -30°C° 0 mm 1 mps 757 mmHg 98%
03:00 -34°C° 0 mm 2 mps 758 mmHg 98%
04:00 -34°C° 0 mm 2 mps 759 mmHg 98%
05:00 -35°C° 0 mm 2 mps 760 mmHg 97%
06:00 -36°C° 0 mm 2 mps 760 mmHg 97%
07:00 -36°C° 0 mm 2 mps 760 mmHg 97%
08:00 -37°C° 0 mm 2 mps 761 mmHg 96%
09:00 -35°C° 0 mm 2 mps 761 mmHg 95%
10:00 -34°C° 0 mm 2 mps 762 mmHg 93%
11:00 -31°C° 0 mm 2 mps 762 mmHg 92%
12:00 -31°C° 0 mm 2 mps 763 mmHg 91%
13:00 -30°C° 0 mm 2 mps 763 mmHg 90%
14:00 -29°C° 0 mm 2 mps 764 mmHg 90%
15:00 -29°C° 0 mm 2 mps 764 mmHg 92%
16:00 -29°C° 0 mm 2 mps 765 mmHg 94%
17:00 -30°C° 0 mm 2 mps 765 mmHg 96%
18:00 -30°C° 0 mm 2 mps 765 mmHg 96%
19:00 -31°C° 0 mm 2 mps 766 mmHg 97%
20:00 -31°C° 0 mm 2 mps 766 mmHg 97%
21:00 -32°C° 0 mm 2 mps 766 mmHg 97%
22:00 -32°C° 0 mm 2 mps 766 mmHg 97%
23:00 -34°C° 0 mm 2 mps 767 mmHg 97%

Tomorrow, 27 February, Saturday

Time Temperature Precipitation Wind Pressure Humidity
00:00 -34°C° 0 mm 2 mps 767 mmHg 97%
01:00 -34°C° 0 mm 2 mps 767 mmHg 97%
02:00 -34°C° 0 mm 2 mps 767 mmHg 97%
03:00 -35°C° 0 mm 2 mps 767 mmHg 97%
04:00 -35°C° 0 mm 2 mps 767 mmHg 97%
05:00 -36°C° 0 mm 2 mps 768 mmHg 97%
06:00 -36°C° 0 mm 2 mps 768 mmHg 97%
07:00 -36°C° 0 mm 2 mps 768 mmHg 97%
08:00 -36°C° 0 mm 2 mps 768 mmHg 97%
09:00 -34°C° 0 mm 2 mps 768 mmHg 95%
10:00 -31°C° 0 mm 2 mps 769 mmHg 93%
11:00 -30°C° 0 mm 2 mps 769 mmHg 91%
12:00 -29°C° 0 mm 2 mps 769 mmHg 91%
13:00 -28°C° 0 mm 2 mps 769 mmHg 90%
14:00 -27°C° 0 mm 2 mps 769 mmHg 89%
15:00 -28°C° 0 mm 2 mps 769 mmHg 92%
16:00 -25°C° 0 mm 1 mps 769 mmHg 94%
17:00 -27°C° 0 mm 1 mps 769 mmHg 97%
18:00 -28°C° 0 mm 1 mps 769 mmHg 97%
19:00 -30°C° 0 mm 2 mps 769 mmHg 98%
20:00 -31°C° 0 mm 2 mps 769 mmHg 98%
21:00 -31°C° 0 mm 2 mps 770 mmHg 98%
22:00 -32°C° 0 mm 2 mps 770 mmHg 98%
23:00 -32°C° 0 mm 2 mps 770 mmHg 98%

Day after tomorrow, 28 February, Sunday

Time Temperature Precipitation Wind Pressure Humidity
00:00 -34°C° 0 mm 2 mps 770 mmHg 98%
01:00 -34°C° 0 mm 2 mps 770 mmHg 98%
02:00 -35°C° 0 mm 2 mps 770 mmHg 98%
03:00 -35°C° 0 mm 2 mps 770 mmHg 98%
04:00 -35°C° 0 mm 2 mps 770 mmHg 98%
05:00 -36°C° 0 mm 2 mps 770 mmHg 98%
06:00 -35°C° 0 mm 2 mps 770 mmHg 97%
07:00 -35°C° 0 mm 2 mps 770 mmHg 97%
08:00 -35°C° 0 mm 2 mps 770 mmHg 96%
09:00 -32°C° 0 mm 2 mps 770 mmHg 95%
10:00 -30°C° 0 mm 2 mps 770 mmHg 94%
11:00 -28°C° 0 mm 2 mps 770 mmHg 93%
12:00 -27°C° 0 mm 2 mps 769 mmHg 93%
13:00 -27°C° 0 mm 3 mps 769 mmHg 93%
14:00 -26°C° 0 mm 3 mps 769 mmHg 92%
15:00 -27°C° 0 mm 3 mps 768 mmHg 94%
16:00 -29°C° 0 mm 3 mps 768 mmHg 95%
17:00 -30°C° 0 mm 3 mps 767 mmHg 97%
18:00 -30°C° 0 mm 3 mps 767 mmHg 97%
19:00 -30°C° 0 mm 3 mps 767 mmHg 97%
20:00 -30°C° 0 mm 3 mps 766 mmHg 97%
21:00 -30°C° 0 mm 3 mps 766 mmHg 97%
22:00 -30°C° 0 mm 3 mps 765 mmHg 96%
23:00 -30°C° 0 mm 3 mps 764 mmHg 96%

1 March, Monday

Time Temperature Precipitation Wind Pressure Humidity
00:00 -31°C° 0 mm 4 mps 764 mmHg 96%
01:00 -31°C° 0 mm 4 mps 763 mmHg 96%
02:00 -30°C° 0 mm 4 mps 763 mmHg 96%
03:00 -30°C° 0 mm 4 mps 762 mmHg 95%
04:00 -30°C° 0 mm 4 mps 762 mmHg 94%
05:00 -30°C° 0 mm 4 mps 761 mmHg 94%
06:00 -29°C° 0 mm 4 mps 761 mmHg 94%
07:00 -29°C° 0 mm 4 mps 760 mmHg 94%
08:00 -29°C° 0 mm 4 mps 760 mmHg 94%
09:00 -27°C° 0 mm 4 mps 759 mmHg 94%
10:00 -25°C° 0 mm 4 mps 759 mmHg 94%
11:00 -25°C° 0 mm 5 mps 759 mmHg 94%
12:00 -24°C° 0 mm 5 mps 758 mmHg 93%
13:00 -22°C° 0 mm 5 mps 758 mmHg 93%
14:00 -21°C° 0 mm 5 mps 757 mmHg 92%
15:00 -20°C° 0 mm 4 mps 757 mmHg 93%
16:00 -20°C° 0 mm 4 mps 757 mmHg 93%
17:00 -22°C° 0 mm 4 mps 756 mmHg 94%
18:00 -22°C° 0 mm 4 mps 756 mmHg 94%
19:00 -22°C° 0 mm 4 mps 756 mmHg 94%
20:00 -22°C° 0 mm 4 mps 756 mmHg 94%
21:00 -22°C° 0 mm 4 mps 756 mmHg 94%
22:00 -22°C° 0 mm 4 mps 755 mmHg 94%
23:00 -22°C° 0 mm 4 mps 755 mmHg 94%

2 March, Tuesday

Time Temperature Precipitation Wind Pressure Humidity
00:00 -22°C° 0.1 mm 4 mps 755 mmHg 95%
01:00 -21°C° 0.1 mm 3 mps 754 mmHg 95%
02:00 -22°C° 0.1 mm 3 mps 754 mmHg 95%
03:00 -22°C° 0.1 mm 3 mps 754 mmHg 96%
04:00 -22°C° 0.1 mm 3 mps 754 mmHg 96%
05:00 -22°C° 0.1 mm 3 mps 754 mmHg 97%
06:00 -20°C° 0.1 mm 2 mps 754 mmHg 96%
07:00 -20°C° 0.1 mm 2 mps 754 mmHg 96%
08:00 -20°C° 0.1 mm 2 mps 754 mmHg 96%
09:00 -20°C° 0.1 mm 2 mps 754 mmHg 95%
10:00 -19°C° 0.1 mm 2 mps 754 mmHg 93%
11:00 -18°C° 0.1 mm 2 mps 754 mmHg 92%
12:00 -16°C° 0.1 mm 1 mps 754 mmHg 92%
13:00 -15°C° 0.1 mm 1 mps 754 mmHg 91%
14:00 -15°C° 0.1 mm 1 mps 754 mmHg 90%
15:00 -15°C° 0.1 mm 1 mps 754 mmHg 92%
16:00 -16°C° 0.1 mm 1 mps 754 mmHg 94%
17:00 -16°C° 0.1 mm 1 mps 754 mmHg 96%
18:00 -16°C° 0.1 mm 1 mps 754 mmHg 97%
19:00 -17°C° 0.1 mm 1 mps 754 mmHg 97%
20:00 -17°C° 0.1 mm 1 mps 755 mmHg 97%
21:00 -18°C° 0 mm 0 mps 755 mmHg 98%
22:00 -19°C° 0 mm 0 mps 755 mmHg 99%
23:00 -20°C° 0 mm 0 mps 755 mmHg 99%

3 March, Wednesday

Time Temperature Precipitation Wind Pressure Humidity
00:00 -20°C° 0 mm 0 mps 755 mmHg 99%
01:00 -21°C° 0 mm 1 mps 755 mmHg 99%
02:00 -21°C° 0 mm 1 mps 755 mmHg 99%
03:00 -21°C° 0 mm 1 mps 755 mmHg 99%
04:00 -22°C° 0 mm 1 mps 756 mmHg 99%
05:00 -23°C° 0 mm 0 mps 756 mmHg 99%
06:00 -22°C° 0 mm 0 mps 756 mmHg 99%
07:00 -22°C° 0 mm 0 mps 756 mmHg 98%
08:00 -21°C° 0 mm 1 mps 757 mmHg 97%
09:00 -19°C° 0 mm 1 mps 757 mmHg 95%
10:00 -17°C° 0 mm 1 mps 757 mmHg 92%
11:00 -15°C° 0 mm 1 mps 757 mmHg 89%
12:00 -16°C° 0 mm 2 mps 757 mmHg 89%
13:00 -15°C° 0 mm 2 mps 757 mmHg 89%
14:00 -14°C° 0 mm 2 mps 757 mmHg 89%
15:00 -15°C° 0 mm 2 mps 757 mmHg 90%
16:00 -15°C° 0 mm 2 mps 757 mmHg 92%
17:00 -15°C° 0 mm 2 mps 757 mmHg 93%
18:00 -16°C° 0 mm 3 mps 757 mmHg 93%
19:00 -17°C° 0 mm 3 mps 757 mmHg 93%
20:00 -17°C° 0 mm 3 mps 757 mmHg 93%
21:00 -18°C° 0 mm 3 mps 757 mmHg 93%
22:00 -18°C° 0 mm 3 mps 757 mmHg 93%
23:00 -19°C° 0 mm 3 mps 757 mmHg 93%
Show more

We Need Your Consent

Meteoprog and our Service Providers may store and access personal data such as cookies, device identifiers or other similar technologies on your device and process such data to personalise content and ads, as well as provide social media features and to analyse the traffic.

  • Store and/or access information on your device

    Cookies, device identifiers or other information can be stored or accessed on your device for the purposes indicated above.

  • Personalised ads and content, ad and content measurement, audience insights, and products development

    Ads and content can be personalised based on a profile. More data can be added to better personalise ads and content. Ad and content performance can be measured. Insights about the audience who saw the ads and content can be derived. Such data can be used to develop or improve user’s experience, systems and software.

By clicking ‘I Agree’ you will allow the use of indicated cookies, device identifiers, web beacons or other similar technologies. Your settings can be changed in the browser on your device.

For certain purposes, legitimate interests may be relied on, rather than consent. You can read more about this in our Privacy and Cookie Policy.